Weather History for Houston, TX

Change the Weather History Date:

Sunday, August 11, 2013

  Actual Average Record
Temperature  
Mean Temperature 85 °F 85 °F  
Max Temperature 93 °F 95 °F 102 °F (2011)
Min Temperature 77 °F 75 °F 65 °F (1989)
Cooling Degree Days 20 20  
Month to date cooling degree days 248 220  
Year to date cooling degree days 2005 1993  
Since 1 June cooling degree days 1435 1341  
Growing Degree Days 35 (Base 50)    
Moisture  
Dew Point 74 °F    
Average Humidity 76    
Maximum Humidity 100    
Minimum Humidity 52    
Precipitation  
Precipitation T in 0.10 in 2.72 in (1926)
Month to date precipitation 0.15 1.15  
Year to date precipitation 18.02 29.26  
Sea Level Pressure  
Sea Level Pressure 30.04 in    
Wind  
Wind Speed 3 mph (SSE)    
Max Wind Speed 17 mph    
Max Gust Speed 22 mph    
Visibility 10 miles    
Events Thunderstorm    
T = Trace of Precipitation, MM = Missing Value Source: NWS Daily Summary

Daily Weather History Graph

Daily Weather History Graph

Search for Another Location

Airport:

Trip Planner

Search our weather history database for the weather conditions in past years. The results will help you decide how hot, cold, wet, or windy it might be!

Date:

Astronomy

Aug. 11, 2013 Rise Set
Actual Time 6:46 AM CDT 8:05 PM CDT
Civil Twilight 6:21 AM CDT 8:30 PM CDT
Nautical Twilight 5:51 AM CDT 9:00 PM CDT
Astronomical Twilight 5:20 AM CDT 9:31 PM CDT
Moon 11:08 AM CDT (8/11) 10:50 PM CDT (8/11)
Length of Visible Light 14h 08m
Length of Day
13h 18m
Waxing Crescent, 22% of the Moon is Illuminated
Aug 11
Waxing Crescent
Aug 14
First Quarter
Aug 20
Full
Aug 28
Last Quarter
Sep 5
New

Hourly Weather History & Observations

Time (CDT) Temp. Heat Index Dew Point Humidity Pressure Visibility Wind Dir Wind Speed Gust Speed Precip Events Conditions
12:53 AM 82.0 °F 90.2 °F 77.0 °F 85% 30.03 in 10.0 mi ESE 3.5 mph - N/A   Mostly Cloudy
1:53 AM 81.0 °F 87.9 °F 77.0 °F 88% 30.01 in 10.0 mi Calm Calm - N/A   Mostly Cloudy
2:53 AM 81.0 °F 87.9 °F 77.0 °F 88% 30.01 in 10.0 mi Calm Calm - N/A   Mostly Cloudy
3:53 AM 81.0 °F 87.9 °F 77.0 °F 88% 30.01 in 10.0 mi Calm Calm - N/A   Mostly Cloudy
4:53 AM 80.1 °F 85.4 °F 75.9 °F 87% 30.03 in 10.0 mi Calm Calm - N/A   Mostly Cloudy
5:53 AM 79.0 °F - 75.9 °F 90% 30.02 in 10.0 mi Calm Calm - N/A   Mostly Cloudy
6:53 AM 80.1 °F 85.4 °F 75.9 °F 87% 30.04 in 10.0 mi Calm Calm - N/A   Mostly Cloudy
7:53 AM 82.9 °F 91.8 °F 77.0 °F 82% 30.05 in 10.0 mi Calm Calm - N/A   Scattered Clouds
8:53 AM 86.0 °F 96.9 °F 77.0 °F 74% 30.07 in 10.0 mi Calm Calm - N/A   Partly Cloudy
9:53 AM 86.0 °F 95.1 °F 75.0 °F 70% 30.07 in 10.0 mi Calm Calm - N/A   Scattered Clouds
10:53 AM 84.0 °F 91.9 °F 75.0 °F 74% 30.08 in 10.0 mi ESE 9.2 mph - 0.00 in Thunderstorm Thunderstorm
11:47 AM 89.6 °F 96.2 °F 71.6 °F 55% 30.06 in 10.0 mi SE 6.9 mph - 0.00 in   Mostly Cloudy
11:53 AM 89.1 °F 95.0 °F 71.1 °F 55% 30.07 in 10.0 mi Calm Calm - 0.00 in   Mostly Cloudy
12:53 PM 91.9 °F 99.5 °F 72.0 °F 52% 30.06 in 10.0 mi Variable 4.6 mph - N/A   Mostly Cloudy
1:53 PM 88.0 °F 96.5 °F 73.9 °F 63% 30.05 in 10.0 mi SSE 12.7 mph - N/A   Mostly Cloudy
2:53 PM 87.1 °F 93.6 °F 72.0 °F 61% 30.04 in 10.0 mi SSE 8.1 mph - N/A   Mostly Cloudy
3:53 PM 88.0 °F 94.7 °F 72.0 °F 59% 30.03 in 10.0 mi ESE 11.5 mph 17.3 mph N/A   Mostly Cloudy
4:53 PM 90.0 °F 96.9 °F 72.0 °F 55% 30.02 in 10.0 mi SE 10.4 mph 16.1 mph N/A   Mostly Cloudy
5:53 PM 89.1 °F 98.0 °F 73.9 °F 61% 30.02 in 10.0 mi South 8.1 mph - N/A   Mostly Cloudy
6:53 PM 87.1 °F 95.4 °F 73.9 °F 65% 30.02 in 10.0 mi South 9.2 mph - N/A   Mostly Cloudy
7:53 PM 84.9 °F 91.4 °F 73.0 °F 67% 30.01 in 10.0 mi SSE 6.9 mph - N/A   Mostly Cloudy
8:53 PM 82.9 °F 88.8 °F 73.0 °F 72% 30.02 in 10.0 mi SSE 5.8 mph - N/A   Mostly Cloudy
9:53 PM 82.0 °F 87.9 °F 73.9 °F 76% 30.04 in 10.0 mi SSE 3.5 mph - N/A   Scattered Clouds
10:53 PM 80.1 °F 85.1 °F 75.0 °F 85% 30.05 in 10.0 mi SSE 4.6 mph - N/A   Scattered Clouds
11:53 PM 80.1 °F 85.1 °F 75.0 °F 85% 30.06 in 10.0 mi SSE 3.5 mph - N/A   Scattered Clouds